LC10 LFRT-LFBD

Flight info

Callsign LC10
Flight time 0h 44m
Altitude 390
Route OZNOH EKMOP PIQFU ROYAN
Aircraft B733/M-V/N

Departure

Time 2026-04-29 06:01
Airport Saint-Brieuc-Armor Airport (LFRT)

Arrival

Time 2026-04-29 06:46
Airport Bordeaux–Mérignac Airport (LFBD)
Time Latitude Longitude Altitude Speed Heading
2026-04-29 05:55 48.53501 -2.85580 447 ft 0 kts 292°
2026-04-29 05:58 48.53505 -2.85592 446 ft 2 kts 306°
2026-04-29 05:58 48.53537 -2.85595 446 ft 8 kts 33°
2026-04-29 05:58 48.53588 -2.85529 444 ft 11 kts 16°
2026-04-29 05:58 48.53669 -2.85588 442 ft 13 kts 330°
2026-04-29 05:59 48.53726 -2.85690 442 ft 14 kts 262°
2026-04-29 05:59 48.53683 -2.85824 443 ft 14 kts 238°
2026-04-29 05:59 48.53622 -2.85976 444 ft 20 kts 240°
2026-04-29 05:59 48.53536 -2.86190 446 ft 24 kts 239°
2026-04-29 06:00 48.53447 -2.86412 448 ft 24 kts 239°
2026-04-29 06:00 48.53358 -2.86622 446 ft 14 kts 220°
2026-04-29 06:00 48.53314 -2.86697 446 ft 6 kts 338°
2026-04-29 06:00 48.53335 -2.86677 446 ft 12 kts 43°
2026-04-29 06:01 48.53513 -2.86251 446 ft 83 kts 58°
2026-04-29 06:01 48.53925 -2.85225 432 ft 144 kts 58°
2026-04-29 06:01 48.54480 -2.83797 703 ft 166 kts 59°
2026-04-29 06:01 48.55058 -2.82251 1311 ft 172 kts 61°
2026-04-29 06:02 48.55281 -2.80487 1910 ft 182 kts 99°
2026-04-29 06:02 48.54595 -2.78817 2413 ft 194 kts 121°
2026-04-29 06:02 48.53788 -2.77139 2843 ft 202 kts 117°
2026-04-29 06:02 48.53010 -2.75291 3199 ft 217 kts 114°
2026-04-29 06:03 48.52235 -2.73239 3499 ft 231 kts 112°
2026-04-29 06:03 48.51485 -2.71086 3766 ft 238 kts 110°
2026-04-29 06:03 48.50720 -2.68731 3994 ft 262 kts 110°
2026-04-29 06:03 48.49925 -2.66182 4536 ft 272 kts 109°
2026-04-29 06:04 48.49125 -2.63534 5159 ft 278 kts 109°
2026-04-29 06:04 48.48331 -2.60845 5676 ft 289 kts 109°
2026-04-29 06:04 48.47524 -2.58073 6371 ft 292 kts 110°
2026-04-29 06:04 48.46711 -2.55259 6996 ft 296 kts 112°
2026-04-29 06:05 48.45522 -2.52660 7512 ft 306 kts 140°
2026-04-29 06:05 48.43660 -2.51150 8167 ft 306 kts 160°
2026-04-29 06:05 48.41680 -2.49960 8923 ft 304 kts 162°
2026-04-29 06:05 48.39755 -2.48811 9618 ft 304 kts 162°
2026-04-29 06:06 48.37796 -2.47637 10290 ft 305 kts 163°
2026-04-29 06:06 48.35768 -2.46426 10433 ft 326 kts 162°
2026-04-29 06:06 48.33604 -2.45129 10641 ft 343 kts 162°
2026-04-29 06:06 48.31370 -2.43784 11150 ft 350 kts 162°
2026-04-29 06:07 48.29122 -2.42430 11872 ft 349 kts 162°
2026-04-29 06:07 48.26879 -2.41081 12615 ft 348 kts 163°
2026-04-29 06:07 48.24610 -2.39721 13169 ft 353 kts 163°
2026-04-29 06:07 48.22329 -2.38354 13717 ft 357 kts 163°
2026-04-29 06:08 48.20023 -2.36974 14271 ft 360 kts 163°
2026-04-29 06:08 48.17700 -2.35585 14817 ft 363 kts 163°
2026-04-29 06:08 48.15356 -2.34181 15347 ft 366 kts 164°
2026-04-29 06:08 48.12994 -2.32761 15873 ft 369 kts 165°
2026-04-29 06:09 48.10613 -2.31335 16378 ft 371 kts 165°
2026-04-29 06:09 48.08215 -2.29903 16870 ft 374 kts 165°
2026-04-29 06:09 48.05798 -2.28464 17348 ft 377 kts 165°
2026-04-29 06:09 48.03362 -2.27015 17816 ft 380 kts 165°
2026-04-29 06:10 48.00909 -2.25558 18276 ft 383 kts 165°
2026-04-29 06:10 47.98466 -2.24109 18722 ft 385 kts 165°
2026-04-29 06:10 47.95976 -2.22633 19164 ft 388 kts 166°
2026-04-29 06:10 47.93468 -2.21148 19601 ft 391 kts 166°
2026-04-29 06:11 47.90942 -2.19654 20027 ft 393 kts 166°
2026-04-29 06:11 47.88394 -2.18151 20397 ft 398 kts 166°
2026-04-29 06:11 47.85822 -2.16637 20822 ft 400 kts 166°
2026-04-29 06:11 47.83241 -2.15117 21256 ft 402 kts 166°
2026-04-29 06:12 47.80644 -2.13589 21664 ft 404 kts 166°
2026-04-29 06:12 47.78030 -2.12051 22057 ft 406 kts 166°
2026-04-29 06:12 47.75403 -2.10508 22441 ft 409 kts 166°
2026-04-29 06:12 47.72760 -2.08957 22813 ft 411 kts 166°
2026-04-29 06:13 47.70099 -2.07397 23173 ft 414 kts 166°
2026-04-29 06:13 47.67421 -2.05828 23541 ft 416 kts 167°
2026-04-29 06:13 47.64728 -2.04253 23891 ft 419 kts 167°
2026-04-29 06:13 47.62064 -2.02696 24237 ft 421 kts 167°
2026-04-29 06:14 47.59342 -2.01107 24579 ft 423 kts 167°
2026-04-29 06:14 47.56601 -1.99508 24920 ft 426 kts 167°
2026-04-29 06:14 47.53836 -1.97898 25248 ft 428 kts 167°
2026-04-29 06:14 47.51068 -1.96288 25572 ft 430 kts 167°
2026-04-29 06:15 47.48286 -1.94671 25893 ft 432 kts 167°
2026-04-29 06:15 47.45486 -1.93046 26199 ft 435 kts 167°
2026-04-29 06:15 47.42674 -1.91416 26503 ft 437 kts 167°
2026-04-29 06:15 47.39847 -1.89779 26784 ft 439 kts 167°
2026-04-29 06:16 47.37050 -1.88161 27079 ft 441 kts 167°
2026-04-29 06:16 47.34197 -1.86512 27370 ft 443 kts 167°
2026-04-29 06:16 47.31333 -1.84859 27658 ft 445 kts 167°
2026-04-29 06:16 47.28455 -1.83200 27992 ft 446 kts 167°
2026-04-29 06:17 47.25588 -1.81547 28406 ft 444 kts 168°
2026-04-29 06:17 47.22731 -1.79903 28790 ft 443 kts 168°
2026-04-29 06:17 47.19866 -1.78258 28937 ft 442 kts 168°
2026-04-29 06:17 47.17029 -1.76628 28995 ft 437 kts 168°
2026-04-29 06:18 47.11422 -1.73416 28946 ft 432 kts 168°
2026-04-29 06:18 47.05846 -1.70232 28936 ft 432 kts 168°
2026-04-29 06:19 47.00256 -1.67048 28932 ft 434 kts 167°
2026-04-29 06:19 46.94608 -1.63835 28941 ft 439 kts 166°
2026-04-29 06:20 46.88913 -1.60602 28921 ft 442 kts 166°
2026-04-29 06:20 46.83192 -1.57368 28942 ft 442 kts 165°
2026-04-29 06:21 46.77522 -1.54167 28944 ft 441 kts 165°
2026-04-29 06:21 46.71816 -1.50950 28938 ft 442 kts 165°
2026-04-29 06:22 46.66105 -1.47754 28941 ft 440 kts 167°
2026-04-29 06:22 46.60357 -1.44856 28943 ft 438 kts 167°
2026-04-29 06:23 46.54613 -1.41965 28939 ft 439 kts 167°
2026-04-29 06:23 46.48869 -1.39065 28940 ft 439 kts 167°
2026-04-29 06:24 46.43127 -1.36169 28937 ft 438 kts 167°
2026-04-29 06:24 46.37386 -1.33270 28923 ft 438 kts 168°
2026-04-29 06:25 46.31655 -1.30380 28919 ft 438 kts 168°
2026-04-29 06:25 46.25916 -1.27504 28916 ft 438 kts 168°
2026-04-29 06:26 46.20161 -1.24629 28913 ft 438 kts 168°
2026-04-29 06:26 46.14411 -1.21762 28914 ft 439 kts 168°
2026-04-29 06:27 46.08604 -1.19327 28620 ft 439 kts 173°
2026-04-29 06:27 46.05643 -1.18238 28008 ft 439 kts 173°
2026-04-29 06:27 46.02721 -1.17149 27388 ft 435 kts 172°
2026-04-29 06:28 45.99820 -1.16061 26733 ft 433 kts 172°
2026-04-29 06:28 45.96932 -1.14976 26056 ft 431 kts 172°
2026-04-29 06:28 45.94041 -1.13890 25369 ft 429 kts 172°
2026-04-29 06:28 45.91164 -1.12810 24674 ft 428 kts 172°
2026-04-29 06:29 45.88292 -1.11734 23934 ft 427 kts 172°
2026-04-29 06:29 45.85438 -1.10666 23236 ft 426 kts 172°
2026-04-29 06:29 45.82593 -1.09602 22541 ft 424 kts 172°
2026-04-29 06:29 45.79761 -1.08544 21845 ft 422 kts 172°
2026-04-29 06:30 45.76939 -1.07489 21151 ft 421 kts 172°
2026-04-29 06:30 45.71328 -1.05397 19759 ft 417 kts 172°
2026-04-29 06:30 45.68541 -1.04359 19062 ft 415 kts 172°
2026-04-29 06:31 45.65768 -1.03326 18368 ft 414 kts 172°
2026-04-29 06:31 45.62989 -1.02287 17666 ft 412 kts 171°
2026-04-29 06:31 45.60255 -1.01265 16975 ft 410 kts 171°
2026-04-29 06:31 45.57509 -1.00239 16276 ft 408 kts 171°
2026-04-29 06:32 45.54763 -0.99214 15576 ft 407 kts 171°
2026-04-29 06:32 45.52041 -0.98199 14876 ft 405 kts 171°
2026-04-29 06:32 45.49337 -0.97192 14180 ft 403 kts 171°
2026-04-29 06:32 45.46650 -0.96191 13484 ft 401 kts 171°
2026-04-29 06:33 45.43939 -0.95184 12793 ft 399 kts 171°
2026-04-29 06:33 45.41297 -0.94201 12247 ft 393 kts 171°
2026-04-29 06:33 45.38697 -0.93235 11748 ft 387 kts 171°
2026-04-29 06:33 45.36120 -0.92279 11247 ft 382 kts 170°
2026-04-29 06:34 45.33570 -0.91335 10745 ft 377 kts 170°
2026-04-29 06:34 45.31050 -0.90403 10243 ft 373 kts 169°
2026-04-29 06:34 45.28558 -0.89482 9741 ft 369 kts 169°
2026-04-29 06:34 45.26093 -0.88572 9241 ft 366 kts 168°
2026-04-29 06:35 45.23645 -0.87669 8742 ft 363 kts 168°
2026-04-29 06:35 45.21221 -0.86775 8243 ft 360 kts 167°
2026-04-29 06:35 45.18779 -0.86073 7732 ft 355 kts 179°
2026-04-29 06:35 45.16340 -0.86054 7243 ft 352 kts 182°
2026-04-29 06:36 45.13896 -0.86065 6752 ft 349 kts 181°
2026-04-29 06:36 45.11504 -0.86057 6432 ft 341 kts 180°
2026-04-29 06:36 45.09148 -0.86039 6124 ft 333 kts 180°
2026-04-29 06:36 45.06877 -0.86017 5847 ft 324 kts 179°
2026-04-29 06:37 45.04637 -0.85993 5588 ft 315 kts 179°
2026-04-29 06:37 45.02501 -0.85969 5335 ft 306 kts 179°
2026-04-29 06:37 45.00375 -0.85944 5118 ft 296 kts 179°
2026-04-29 06:37 44.98352 -0.85920 4930 ft 285 kts 179°
2026-04-29 06:38 44.96373 -0.85895 4750 ft 282 kts 178°
2026-04-29 06:38 44.94409 -0.85873 4581 ft 284 kts 178°
2026-04-29 06:38 44.92368 -0.85915 4394 ft 284 kts 188°
2026-04-29 06:38 44.90610 -0.87018 4210 ft 282 kts 222°
2026-04-29 06:39 44.89172 -0.88952 4018 ft 281 kts 224°
2026-04-29 06:39 44.87793 -0.90814 3830 ft 272 kts 224°
2026-04-29 06:39 44.86441 -0.92617 3640 ft 262 kts 224°
2026-04-29 06:39 44.85135 -0.94347 3451 ft 253 kts 223°
2026-04-29 06:40 44.83650 -0.95579 3246 ft 242 kts 192°
2026-04-29 06:40 44.82044 -0.96074 3062 ft 233 kts 191°
2026-04-29 06:40 44.80465 -0.96481 2861 ft 224 kts 179°
2026-04-29 06:40 44.79029 -0.95998 2664 ft 208 kts 146°
2026-04-29 06:41 44.77903 -0.94782 2488 ft 196 kts 137°
2026-04-29 06:41 44.76870 -0.93550 2342 ft 201 kts 138°
2026-04-29 06:41 44.75784 -0.92263 2192 ft 202 kts 137°
2026-04-29 06:41 44.74746 -0.90911 2031 ft 201 kts 134°
2026-04-29 06:42 44.73746 -0.89540 1975 ft 198 kts 133°
2026-04-29 06:42 44.73026 -0.87921 1981 ft 195 kts 100°
2026-04-29 06:42 44.73071 -0.86054 2016 ft 194 kts 68°
2026-04-29 06:42 44.73842 -0.84500 2032 ft 192 kts 46°
2026-04-29 06:43 44.74735 -0.83193 1971 ft 179 kts 46°
2026-04-29 06:43 44.75576 -0.81973 1868 ft 166 kts 46°
2026-04-29 06:43 44.76388 -0.80791 1747 ft 168 kts 46°
2026-04-29 06:43 44.77204 -0.79607 1577 ft 168 kts 46°
2026-04-29 06:44 44.78019 -0.78431 1375 ft 168 kts 46°
2026-04-29 06:44 44.78840 -0.77251 1149 ft 168 kts 46°
2026-04-29 06:44 44.79646 -0.76097 936 ft 156 kts 46°
2026-04-29 06:44 44.80360 -0.75084 728 ft 142 kts 46°
2026-04-29 06:45 44.81043 -0.74093 540 ft 141 kts 47°
2026-04-29 06:45 44.81736 -0.73118 257 ft 142 kts 45°
2026-04-29 06:45 44.82415 -0.72167 161 ft 117 kts 44°
2026-04-29 06:45 44.82832 -0.71579 161 ft 54 kts 45°
2026-04-29 06:46 44.83081 -0.71222 163 ft 49 kts 45°
2026-04-29 06:46 44.83321 -0.70881 156 ft 47 kts 46°
2026-04-29 06:46 44.83551 -0.70555 155 ft 46 kts 45°
2026-04-29 06:46 44.83765 -0.70245 155 ft 30 kts 44°
2026-04-29 06:47 44.83783 -0.70093 155 ft 14 kts 138°
2026-04-29 06:47 44.83693 -0.70027 155 ft 14 kts 154°
2026-04-29 06:47 44.83598 -0.70035 156 ft 14 kts 219°
2026-04-29 06:47 44.83527 -0.70138 157 ft 14 kts 226°
2026-04-29 06:48 44.83453 -0.70244 156 ft 16 kts 225°
2026-04-29 06:48 44.83369 -0.70365 155 ft 18 kts 225°
2026-04-29 06:48 44.83279 -0.70494 155 ft 18 kts 220°
2026-04-29 06:48 44.83195 -0.70544 155 ft 11 kts 128°
2026-04-29 06:49 44.83199 -0.70443 156 ft 10 kts 131°
2026-04-29 06:49 44.83157 -0.70415 156 ft 0 kts 162°